CST,Max TemperatureF,Mean TemperatureF,Min TemperatureF,Max Dew PointF,MeanDew PointF,Min DewpointF,Max Humidity, Mean Humidity, Min Humidity, Max Sea Level PressureIn, Mean Sea Level PressureIn, Min Sea Level PressureIn, Max VisibilityMiles, Mean VisibilityMiles, Min VisibilityMiles, Max Wind SpeedMPH, Mean Wind SpeedMPH, Max Gust SpeedMPH,PrecipitationIn, CloudCover, Events, WindDirDegrees
2013-11-1,51,47,43,45,43,41,94,87,68,29.77,29.63,29.47,10,10,7,20,13,30,0.05,8,Rain,252
2013-11-2,48,40,34,42,38,33,99,88,71,30.15,29.95,29.77,10,8,3,15,6,20,0.00,4,,280
2013-11-3,52,40,29,40,35,29,99,81,52,30.32,30.26,30.15,10,9,4,10,4,,0.00,1,,123
2013-11-4,57,48,39,43,40,36,89,72,54,30.29,30.22,30.15,10,10,10,20,11,28,0.00,3,,151
2013-11-5,57,54,50,50,46,43,97,79,65,30.30,30.20,30.01,10,10,3,18,9,26,0.00,8,Rain,163
2013-11-6,56,45,34,54,45,29,95,89,75,30.19,29.99,29.85,10,9,3,25,16,36,0.61,6,Rain,237
2013-11-7,45,36,28,35,30,27,95,82,61,30.29,30.24,30.19,10,10,10,21,7,24,0.00,2,,262
2013-11-8,49,38,26,33,30,24,94,72,49,30.36,30.23,30.02,10,10,10,22,7,32,0.00,1,,204
2013-11-9,60,50,40,41,37,32,85,64,44,30.15,29.99,29.93,10,10,10,29,19,38,0.00,0,,237
2013-11-10,47,40,33,34,31,29,83,69,51,30.37,30.29,30.15,10,10,10,15,9,21,0.00,2,,268
2013-11-11,48,38,26,40,32,18,96,77,63,30.48,30.23,30.12,10,8,2,16,9,24,0.09,7,Rain-Snow,287
2013-11-12,32,26,21,24,19,16,86,74,55,30.70,30.63,30.49,10,10,10,15,10,23,0.00,0,,304
2013-11-13,37,26,15,24,20,13,89,72,53,30.63,30.46,30.23,10,10,10,20,9,25,0.00,0,,213
2013-11-14,50,39,28,28,25,21,73,58,39,30.22,30.09,30.00,10,10,10,25,14,31,0.00,0,,198
2013-11-15,47,40,34,41,33,28,86,71,56,30.04,30.01,29.97,10,10,7,15,11,20,0.00,4,Rain,188
2013-11-16,59,50,41,57,49,38,95,89,77,29.98,29.81,29.63,10,8,2,26,14,37,0.09,7,Rain-Thunderstorm,163
2013-11-17,68,55,42,63,52,36,96,85,72,29.81,29.53,29.25,10,10,1,34,20,59,0.16,6,Rain-Thunderstorm,213
2013-11-18,44,38,31,37,31,26,89,75,55,30.27,30.05,29.82,10,10,10,25,14,32,0.00,1,,275
2013-11-19,43,34,26,31,27,22,91,78,58,30.38,30.32,30.27,10,10,10,8,4,,0.00,0,,99
2013-11-20,43,35,27,38,31,26,95,80,62,30.31,30.21,30.10,10,10,5,16,8,21,0.11,3,Rain-Thunderstorm,123
2013-11-21,48,44,41,47,43,38,99,90,76,30.20,30.16,30.12,10,7,2,13,6,17,0.25,8,Rain,163
2013-11-22,45,36,27,46,34,25,99,87,69,30.49,30.37,30.18,10,7,1,14,6,20,0.03,6,Rain,328
2013-11-23,27,21,15,25,13,6,92,67,47,30.70,30.56,30.44,10,10,10,20,10,26,0.00,1,,311
2013-11-24,26,18,10,12,8,3,83,66,38,30.74,30.61,30.43,10,10,10,12,6,,0.00,0,,247
2013-11-25,32,24,17,27,20,11,89,73,56,30.42,30.22,30.12,10,9,4,21,12,26,0.00,6,Snow,210
2013-11-26,36,28,18,28,22,6,89,76,53,30.14,30.08,30.01,10,10,10,15,8,24,0.00,7,Snow,273
2013-11-27,28,20,13,15,9,5,81,64,49,30.29,30.21,30.13,10,10,10,15,9,23,0.00,1,,302
2013-11-28,35,27,19,18,15,12,82,62,46,30.50,30.30,30.20,10,10,10,21,8,25,0.00,3,,233
2013-11-29,35,23,11,22,17,9,91,74,53,30.64,30.54,30.42,10,10,10,9,3,,0.00,0,,140
2013-11-30,50,39,28,31,27,22,85,67,46,30.42,30.21,30.08,10,10,10,17,9,23,0.00,0,,180